Regional Weather Roundup
Issued by NWS San Diego, CA

Home | Current Version | Previous Version | Text Only | Print | Product List | Glossary On
Versions: 1 2 3 4 5 6 7 8 9 10 11 12 13 14 15 16 17 18 19 20 21 22 23 24 25 26 27 28 29 30 31 32 33 34 35 36 37 38 39 40 41 42 43 44 45 46 47 48 49 50
023
ASUS46 KSGX 071811
RWRSGX

SAN DIEGO HOURLY WEATHER ROUNDUP
NATIONAL WEATHER SERVICE SAN DIEGO CA
1000 AM PST SUN FEB 07 2016

NOTE: "FAIR" INDICATES FEW OR NO CLOUDS BELOW 12,000 FEET WITH NO
SIGNIFICANT WEATHER AND/OR OBSTRUCTIONS TO VISIBILITY.

CAZ042-043-060-061-PZZ750-775-071900-

GREATER SAN DIEGO AREA

CITY           SKY/WX    TMP DP  RH WIND       PRES   REMARKS
LINDBERGH FLD  MOSUNNY   67  31  26 CALM      30.15S
NATIONAL CITY    N/A     71  30  22 N1        30.14S
CHULA VISTA      N/A     71  33  25 CALM      30.07R
IMPERIAL BEACH SUNNY     74  20  13 N9        30.14R
BROWN FIELD    SUNNY     73  24  16 N3        30.14S
MIRAMAR MCAS   MOSUNNY   75  24  15 NW3       30.14S
MONTGOMERY FLD SUNNY     73  20  13 CALM      30.14S

$$

NORTH SAN DIEGO COUNTY

CITY           SKY/WX    TMP DP  RH WIND       PRES   REMARKS
CAMP PENDLETON SUNNY     77  27  15 E5        30.14R
OCEANSIDE AP   SUNNY     72  30  21 NE6       30.13F
OCEANSIDE HBR    N/A     64  50  60 W5        30.17R
VISTA            N/A     72  36  27 CALM      30.14R
CARLSBAD       SUNNY     75  25  15 VRB3      30.14R
DEL MAR          N/A     70  30  22 CALM      30.16S
FALLBROOK        N/A     73  28  19 CALM      30.15R
ESCONDIDO        N/A     73  27  18 W1        30.15R
SAN MARCOS       N/A     70  31  23 CALM      30.14R
POWAY            N/A     69  32  25 CALM      30.17R

$$

EAST SAN DIEGO COUNTY

CITY           SKY/WX    TMP DP  RH WIND       PRES   REMARKS
RAMONA         SUNNY     75  22  13 E14G21    30.16R
SANTEE LAKES     N/A     61  38  41 NE1       30.14S
LA MESA          N/A     68  33  27 CALM      30.09R
JAMUL            N/A     75  36  24 CALM      30.16S
DESCANSO N       N/A     67  14  13 E25       30.04F
MT. LAGUNA OBS   N/A     48  10  21 E20       29.85R
CAMPO            N/A     68  18  14 NE14G25   30.19R

$$

ORANGE COUNTY AND THE LOS ANGELES BASIN

CITY           SKY/WX    TMP DP  RH WIND       PRES   REMARKS
JOHN WAYNE AP  SUNNY     70  34  26 S3        30.14R
LAGUNA BEACH     N/A     66  43  43 NW1       30.11R
HUNTINGTON BCH   N/A     76  37  24 CALM      30.16R
LOS ALAMITOS   SUNNY     76  30  18 N6        30.14R
FULLERTON      SUNNY     76  34  21 CALM      30.13S
LONG BEACH     SUNNY     70  33  25 NW5       30.15S
L.A. AP        SUNNY     73  25  16 E6        30.14F
L.A. DOWNTOWN  SUNNY     72  25  17 CALM      30.14F

$$

THE INLAND EMPIRE

CITY           SKY/WX    TMP DP  RH WIND       PRES   REMARKS
CORONA         SUNNY     78  22  12 E23G35    30.16F
CHINO          SUNNY     68  31  25 W5        30.17S
ONTARIO        SUNNY     71  29  21 CALM      30.16S
SAN BERNARDINO SUNNY    N/A N/A N/A CALM      30.21S
RIVERSIDE AP   SUNNY     74  21  13 NE9       30.20S
MORENO VALLEY    N/A     70  30  22 CALM      28.32S
MARCH ARB      SUNNY     70  20  15 NW6       30.21R
HORSETHIEF CYN   N/A     71  17  13 NE2       30.24S
PERRIS           N/A     70  23  17 NW9         N/A
HEMET EAST       N/A     65  16  15 CALM      30.09S
FRENCH VALLEY  FAIR      66  28  24 N6        30.20R
TEMECULA         N/A     62  35  36 NE3       30.15S

$$

SAN BERNARDINO AND RIVERSIDE COUNTY MOUNTAINS

CITY           SKY/WX    TMP DP  RH WIND       PRES   REMARKS
BIG BEAR AP    SUNNY     45  10  24 E9G17     30.44R
ANGELUS OAKS     N/A     53  22  30 E1        30.21F
PINE COVE        N/A     58  11  15 W2        30.20R

$$

SOUTHERN DESERT INCLUDING THE COACHELLA VALLEY

CITY           SKY/WX    TMP DP  RH WIND       PRES   REMARKS
PALM SPRINGS   SUNNY     76  19  11 VRB7      30.26R
THOUSAND PALMS   N/A     74  28  18 SE1       30.22R
PALM DESERT      N/A     71  35  26 CALM      29.22F
THERMAL        SUNNY     74  -5   4 NW6       30.22R
BLYTHE         SUNNY     60  26  27 CALM      30.27R
IMPERIAL AP    SUNNY     70  26  19 VRB5      30.23R
EL CENTRO NAS  SUNNY    N/A N/A N/A VRB5      30.25S
YUMA AZ        SUNNY     69  24  18 N15G25    30.22R
MEXICALI       SUNNY     63  23  22 NW6       30.24R

$$

UPPER DESERT

CITY           SKY/WX    TMP DP  RH WIND       PRES   REMARKS
VICTORVILLE AP SUNNY     54  21  28 CALM      30.38S
HESPERIA         N/A     56  26  31 CALM      30.55S
APPLE VALLEY     N/A     54  21  27 CALM      30.35F
PALMDALE       SUNNY     50  28  42 N5        30.38S
LANCASTER      SUNNY     51  27  39 NE3       30.39S
EDWARDS AFB    SUNNY     46  26  45 NE1       30.38R
DAGGETT        SUNNY     55  22  27 W8        30.38R
29 PALMS N     SUNNY     62  18  18 N13       30.41S
NEEDLES        SUNNY     65  24  21 N21G31    30.30S

$$

REGIONAL REPORTS

CITY           SKY/WX    TMP DP  RH WIND       PRES   REMARKS
SANTA BARBARA  SUNNY     68  47  46 SE5       30.16S
SANDBERG       SUNNY     52  22  30 E25G35    30.35S
LAS VEGAS NV   SUNNY     57  22  25 VRB3      30.38S
PHOENIX AZ     MOSUNNY   65  20  17 N5        30.21R
TIJUANA        MOSUNNY   75  16  10 E5        30.16R
ENSENADA NW      N/A     67  32  26 CALM      30.09S

$$

OFFSHORE ISLANDS

CITY           SKY/WX    TMP DP  RH WIND       PRES   REMARKS
CATALINA ARPT  SUNNY     67  19  16 NE9       30.19R
SAN NICOLAS IS SUNNY    N/A N/A N/A NE8       30.16R

$$

MARINE AND OFFSHORE BUOY REPORTS

STATION/POSITION SKY/WX   TEMP    WIND        PRES    SWELL
                          AIR SEA DIR/SP/G            HT/PER/DIR
                          (F)     (DEG/KT/KT) (MB)    (FT/S/D)
TANNER BANKS               60 59   30/  4/  4 1020.5R   7/310/14
S CLEMENTE BASIN           61 60   20/  8/  8 1020.4R   5/280/13
SAN NICOLAS IS.               58                N/A     5/290/13
SO. S. ROSA ISLA           63 58              1020.0S
W. S. BARBARA CH           60 58   90/  6/  8 1020.6R   5/300/12
M. S. BARBARA CH           59 57   90/  4/  4 1021.5R
S. MONICA BASIN            61 59  120/  4/  4 1021.0R   3/270/14
S PEDRO CHANNEL               59                N/A     3/250/14
DANA POINT                    59                N/A     3/270/13
OCEANSIDE OFFSHR              60                N/A     2/270/13
TORREY PINES OTR              60                N/A     3/270/13
LA JOLLA 1                 65 59   CALM  /  1 1020.5R
SAN DIEGO BAY                 60              1021.0R
POINT LOMA SOUTH              60                N/A     5/280/13

$$





USA.gov is the U.S. government's official web portal to all federal, state and local government web resources and services.